Location: Unspecified
(17.6330°N, 0.0000°E)
Time: 02:38:20
(UTC+00:00)

deb Explorer IX - All Passes

Search period start: 18 June 2019 00:00
Search period end: 28 June 2019 00:00
Orbit: 537 x 1115 km, 38.8° (Epoch: 16 June)

Date Brightness Start Highest point End Pass type
(mag) Time Alt. Az. Time Alt. Az. Time Alt. Az.
18 Jun - 11:11:45 10° S 11:15:59 18° SE 11:20:28 10° E daylight
18 Jun - 12:56:01 10° SW 13:02:58 83° SE 13:10:24 10° NE daylight
18 Jun - 14:44:42 10° W 14:50:59 30° NNW 14:57:18 10° NNE daylight
18 Jun - 16:36:40 10° NW 16:40:08 14° NNW 16:43:30 10° NNE daylight
18 Jun - 18:27:15 10° NNW 18:29:52 12° N 18:32:22 10° NNE daylight
18 Jun - 20:13:43 10° NNW 20:18:56 25° NNE 20:23:31 10° E visible
18 Jun - 22:00:43 10° WNW 22:06:35 76° SW 22:11:30 10° SE visible
19 Jun - 10:49:54 10° S 10:54:05 18° SE 10:58:32 10° E daylight
19 Jun - 12:34:11 10° SW 12:41:01 85° SE 12:48:26 10° NE daylight
19 Jun - 14:22:53 10° W 14:29:04 30° NNW 14:35:23 10° NNE daylight
19 Jun - 16:14:45 10° NW 16:18:16 14° N 16:21:43 10° NNE daylight
19 Jun - 18:05:05 10° NNW 18:08:02 13° N 18:10:52 10° NNE daylight
19 Jun - 19:51:40 10° NNW 19:57:07 27° NNE 20:01:56 10° E visible
19 Jun - 21:38:44 10° WNW 21:44:48 74° SW 21:49:52 10° SE visible
20 Jun - 10:28:05 10° S 10:32:12 18° SE 10:36:36 10° E daylight
20 Jun - 12:12:23 10° SW 12:19:05 87° SE 12:26:28 10° NE daylight
20 Jun - 14:01:04 10° W 14:07:09 29° NNW 14:13:25 10° NNE daylight
20 Jun - 15:52:52 10° NW 15:56:24 14° N 15:59:54 10° NNE daylight
20 Jun - 17:42:58 10° NNW 17:46:12 13° N 17:49:19 10° NE daylight
20 Jun - 19:29:36 10° NNW 19:35:18 28° NNE 19:40:20 10° E visible
20 Jun - 21:16:45 10° WNW 21:22:59 72° SW 21:28:13 10° SE visible
21 Jun - 10:06:18 10° S 10:10:18 18° SE 10:14:38 10° E daylight
21 Jun - 11:50:37 10° SW 11:57:09 89° SE 12:04:28 10° NE daylight
21 Jun - 13:39:17 10° W 13:45:14 28° NNW 13:51:27 10° NNE daylight
21 Jun - 15:30:59 10° NW 15:34:31 14° N 15:38:02 10° NNE daylight
21 Jun - 17:20:52 10° NNW 17:24:21 14° N 17:27:42 10° NE daylight
21 Jun - 19:07:33 10° NNW 19:13:27 30° NNE 19:18:42 10° E visible
21 Jun - 20:54:45 10° WNW 21:01:10 70° SW 21:06:33 10° SE visible
22 Jun - 09:44:30 10° S 09:48:26 18° SE 09:52:41 10° E daylight
22 Jun - 11:28:51 10° SW 11:35:14 89° NW 11:42:28 10° NE daylight
22 Jun - 13:17:32 10° W 13:23:19 28° NNW 13:29:26 10° NNE daylight
22 Jun - 15:09:08 10° NW 15:12:38 14° N 15:16:09 10° NNE daylight
22 Jun - 16:58:48 10° NNW 17:02:30 14° N 17:06:04 10° NE daylight
22 Jun - 18:45:29 10° NW 18:51:36 31° NNE 18:57:03 10° E daylight
22 Jun - 20:32:45 10° WNW 20:39:19 69° SW 20:44:52 10° SE visible
23 Jun - 09:22:45 10° S 09:26:33 18° SE 09:30:43 10° E daylight
23 Jun - 11:07:06 10° SW 11:13:18 87° NW 11:20:27 10° NE daylight
23 Jun - 12:55:47 10° W 13:01:25 27° NNW 13:07:26 10° NNE daylight
23 Jun - 14:47:19 10° NW 14:50:46 14° N 14:54:14 10° NNE daylight
23 Jun - 16:36:46 10° NNW 16:40:37 15° N 16:44:22 10° NE daylight
23 Jun - 18:23:27 10° NW 18:29:43 32° NNE 18:35:22 10° E daylight
23 Jun - 20:10:44 10° WNW 20:17:26 67° SW 20:23:09 10° SE visible
24 Jun - 09:01:00 10° S 09:04:42 18° SE 09:08:45 10° E daylight
24 Jun - 10:45:22 10° SW 10:51:24 85° NW 10:58:25 10° NE daylight
24 Jun - 12:34:03 10° WNW 12:39:30 26° NNW 12:45:23 10° NNE daylight
24 Jun - 14:25:32 10° NW 14:28:53 13° N 14:32:16 10° NNE daylight
24 Jun - 16:14:45 10° NNW 16:18:44 15° NNE 16:22:38 10° NE daylight
24 Jun - 18:01:24 10° NW 18:07:49 33° NNE 18:13:39 10° E daylight
24 Jun - 19:48:43 10° WNW 19:55:33 66° SW 20:01:26 10° SE visible
25 Jun - 08:39:15 10° S 08:42:51 18° SE 08:46:47 10° E daylight
25 Jun - 10:23:39 10° SW 10:29:31 83° NW 10:36:24 10° NE daylight
25 Jun - 12:12:21 10° WNW 12:17:37 25° NNW 12:23:21 10° NNE daylight
25 Jun - 14:03:46 10° NNW 14:06:59 13° N 14:10:17 10° NNE daylight
25 Jun - 15:52:45 10° NNW 15:56:51 15° NNE 16:00:52 10° NE daylight
25 Jun - 17:39:21 10° NW 17:45:54 35° NNE 17:51:55 10° E daylight
25 Jun - 19:26:42 10° WNW 19:33:39 65° SW 19:39:41 10° SE visible
25 Jun - 21:19:38 10° SW 21:20:11 10° SW 21:20:45 10° SW visible
26 Jun - 08:17:32 10° S 08:21:00 17° SE 08:24:48 10° E daylight
26 Jun - 10:01:57 10° WSW 10:07:38 80° NW 10:14:21 10° NE daylight
26 Jun - 11:50:40 10° WNW 11:55:44 24° NNW 12:01:16 10° NNE daylight
26 Jun - 13:42:03 10° NNW 13:45:07 13° N 13:48:15 10° NNE daylight
26 Jun - 15:30:46 10° NNW 15:34:56 16° NNE 15:39:04 10° NE daylight
26 Jun - 17:17:20 10° NW 17:23:58 36° NNE 17:30:10 10° E daylight
26 Jun - 19:04:41 10° WNW 19:11:43 63° SW 19:17:55 10° SE visible
26 Jun - 20:57:31 10° SW 20:58:19 10° SW 20:59:08 10° SW visible
27 Jun - 07:55:49 10° S 07:59:10 17° SE 08:02:51 10° E daylight
27 Jun - 09:40:15 10° WSW 09:45:46 78° NW 09:52:19 10° NE daylight
27 Jun - 11:29:00 10° WNW 11:33:51 23° NNW 11:39:11 10° NNE daylight
27 Jun - 13:20:21 10° NNW 13:23:14 13° N 13:26:12 10° NNE daylight
27 Jun - 15:08:50 10° NNW 15:13:02 16° NNE 15:17:14 10° NE daylight
27 Jun - 16:55:18 10° NW 17:02:02 37° NNE 17:08:22 10° E daylight
27 Jun - 18:42:40 10° WNW 18:49:47 62° SW 18:56:08 10° SE daylight
27 Jun - 20:35:27 10° WSW 20:36:27 10° SW 20:37:24 10° SW visible
